Palm Springs, CA

5:20 AM PST on January 22, 2018 (GMT -0800)
Palm Springs International

Weather History for KPSP - April, 2012

Change the Weather History Date:

Saturday, April 28, 2012

  Actual Average Record
Temperature  
Mean Temperature 81 °F 74 °F  
Max Temperature 97 °F 88 °F 106 °F (1992)
Min Temperature 64 °F 60 °F 40 °F (1970)
Degree Days  
Heating Degree Days 0 0  
Month to date heating degree days 16 17  
Since 1 July heating degree days 771 868  
Cooling Degree Days 16 9  
Month to date cooling degree days 257 180  
Year to date cooling degree days 378 300  
Growing Degree Days 32 (Base 50)    
Moisture  
Dew Point 37 °F    
Average Humidity 29    
Maximum Humidity 52    
Minimum Humidity 6    
Precipitation  
Precipitation 0.00 in 0.00 in 0.08 in (2005)
Month to date precipitation 0.20 0.10  
Year to date precipitation 0.79 2.74  
Since 1 July precipitation 2.27  
Snow  
Snow 0.00 in - - ()
Month to date snowfall 0.0  
Year to date snowfall 0.0  
Snow Depth 0.00 in    
Sea Level Pressure  
Sea Level Pressure 29.74 in    
Wind  
Wind Speed 7 mph (NW)    
Max Wind Speed 17 mph    
Max Gust Speed 21 mph    
Visibility 10 miles    
Events      
T = Trace of Precipitation, MM = Missing Value Source: NWS Daily Summary

Daily Weather History Graph

Daily Weather History Graph

Search for Another Location

Airport or City:

Trip Planner

Search our weather history database for the weather conditions in past years. The results will help you decide how hot, cold, wet, or windy it might be!

Date:

Astronomy

Apr. 28, 2012 Rise Set
Actual Time 5:59 AM PDT 7:27 PM PDT
Civil Twilight 5:33 AM PDT 7:54 PM PDT
Nautical Twilight 5:01 AM PDT 8:25 PM PDT
Astronomical Twilight 4:28 AM PDT 8:59 PM PDT
Moon 11:45 AM PDT (4/28) 12:53 AM PDT (4/28)
Length of Visible Light 14h 20m
Length of Day
13h 28m
Waxing Crescent, 44% of the Moon is Illuminated
Apr 28
Waxing Crescent
Apr 29
First Quarter
May 5
Full
May 12
Last Quarter
May 20
New

Hourly Weather History & Observations

Time (PDT) Temp. Dew Point Humidity Pressure Visibility Wind Dir Wind Speed Gust Speed Precip Events Conditions
12:53 AM 70.0 °F 50.0 °F 49% 29.82 in 10.0 mi NW 9.2 mph - N/A   Clear
1:53 AM 69.1 °F 50.0 °F 51% 29.81 in 10.0 mi WNW 8.1 mph - N/A   Clear
2:53 AM 69.1 °F 50.0 °F 51% 29.80 in 10.0 mi NW 10.4 mph - N/A   Clear
3:53 AM 69.1 °F 48.9 °F 49% 29.80 in 10.0 mi West 4.6 mph - N/A   Clear
4:53 AM 69.1 °F 48.0 °F 47% 29.79 in 10.0 mi NW 10.4 mph - N/A   Clear
5:53 AM 66.9 °F 48.9 °F 52% 29.80 in 10.0 mi NW 9.2 mph - N/A   Clear
6:53 AM 68.0 °F 48.0 °F 49% 29.81 in 10.0 mi Variable 3.5 mph - N/A   Clear
7:53 AM 72.0 °F 50.0 °F 46% 29.82 in 10.0 mi NW 9.2 mph - N/A   Clear
8:53 AM 79.0 °F 46.0 °F 31% 29.81 in 10.0 mi West 5.8 mph - N/A   Clear
9:53 AM 87.1 °F 32.0 °F 14% 29.81 in 10.0 mi West 4.6 mph - N/A   Clear
10:53 AM 89.1 °F 19.9 °F 8% 29.80 in 10.0 mi Variable 5.8 mph - N/A   Clear
11:53 AM 91.0 °F 15.1 °F 6% 29.78 in 10.0 mi SSW 4.6 mph - N/A   Clear
12:53 PM 93.9 °F 18.0 °F 6% 29.75 in 10.0 mi SSW 9.2 mph - N/A   Clear
1:53 PM 93.9 °F 18.0 °F 6% 29.73 in 10.0 mi Calm Calm - N/A   Clear
2:53 PM 97.0 °F 19.0 °F 6% 29.70 in 10.0 mi NNE 15.0 mph - N/A   Clear
3:53 PM 96.1 °F 18.0 °F 6% 29.67 in 10.0 mi North 8.1 mph - N/A   Clear
4:53 PM 95.0 °F 18.0 °F 6% 29.65 in 10.0 mi Calm Calm - N/A   Clear
5:53 PM 95.0 °F 25.0 °F 8% 29.64 in 10.0 mi NW 13.8 mph 17.3 mph N/A   Clear
6:53 PM 91.9 °F 35.1 °F 13% 29.64 in 10.0 mi NW 17.3 mph 20.7 mph N/A   Clear
7:53 PM 88.0 °F 41.0 °F 19% 29.65 in 10.0 mi NW 16.1 mph 23.0 mph N/A   Clear
8:53 PM 84.9 °F 46.9 °F 27% 29.68 in 10.0 mi NW 15.0 mph 24.2 mph N/A   Clear
9:53 PM 82.9 °F 42.1 °F 24% 29.70 in 10.0 mi NW 15.0 mph 20.7 mph N/A   Clear
10:53 PM 80.1 °F 46.0 °F 30% 29.71 in 10.0 mi NW 9.2 mph - N/A   Clear
11:53 PM 79.0 °F 45.0 °F 30% 29.71 in 10.0 mi NW 9.2 mph - N/A   Clear